ATL-1 (44830 NORAD) Tracking and Keplerian Element Data

This shows tracking and keplerian element data for the satellite.

Feedback or suggestion? Click here.




ElementValue
Catalog44830
NameATL-1
Epoch Orbit655
Epoch Day17.3061168
Epoch Year2020
RAAN246.219
Inclination96.9982
Eccentricity0.0040927
Argument of Perigee96.5373
Mean Anonmoly264.055
Mean Motion15.66518439
Decay Rate0.00021634
L11 44830U 19084G 20017.30611680 .00021634 00000-0 19936-3 0 9993
L22 44830 96.9982 246.2190 0040927 96.5373 264.0550 15.66518439 6559

Live tracking and technical data element details for ATL-1 (NORAD 44830). ATL-1 can be tracked NOW for your location showing map with azimuth and elevation plus other details from your city location.

Track the satellite on the map from your city or location and see movement details for azimuth, elevation, latitude, longitude, range, height, and movement on the map or in text.







IsCatalogInMostPopularTable: catalog: 44830, numindb: 8
Update: records affected: 1



GetName: 44830 ATL-1

Hit Count: updated at: Mon, 20 Jan 2020 03:04:23 GMT